Regional Weather Roundup
Issued by NWS

Home | Current Version | Previous Version | Text Only | Print | Product List | Glossary On
Versions: 1 2 3 4 5 6 7 8 9 10 11 12 13 14 15 16 17 18 19 20 21 22 23 24 25 26 27 28 29 30 31 32 33 34 35 36 37 38 39 40 41 42 43 44 45 46 47 48 49 50
000
ASUS43 KMPX 011110
RWRMN
WEATHER ROUNDUP FOR MINNESOTA
NATIONAL WEATHER SERVICE TWIN CITIES/CHANHASSEN MN
500 AM CST MON MAR 01 2021


NOTE: "FAIR" INDICATES FEW OR NO CLOUDS BELOW 12,000 FEET WITH NO
SIGNIFICANT WEATHER AND/OR OBSTRUCTIONS TO VISIBILITY. N/A MEANS
CURRENT SKY AND/OR WEATHER CONDITIONS ARE NOT AVAILABLE.

MNZ060>063-068>070-011200-
   Twin Cities Metro

CITY           SKY/WX    TMP DP  RH WIND       PRES   REMARKS
TWIN CITIES    CLOUDY    17  13  84 N8        30.20R WCI   7
ST PAUL        LGT SNOW  18  12  77 N6        30.21R WCI  10
CRYSTAL        CLOUDY    15   9  76 N7        30.20R WCI   5
BLAINE         MOCLDY    16  12  86 NW6       30.20R WCI   7
LAKEVILLE      LGT SNOW  18  16  93 N7        30.17R WCI   8
EDEN PRAIRIE   CLOUDY    17  11  77 N9        30.19R WCI   6
SOUTH ST PAUL  CLOUDY    18  13  80 N8        30.20R WCI   8
$$
MNZ001>005-007-008-013>017-022>024-027-028-011200-
   Northwest Minnesota

CITY           SKY/WX    TMP DP  RH WIND       PRES   REMARKS
BEMIDJI        CLEAR     -4 -10  75 NW5       30.25R WCI -15
HALLOCK        CLEAR     -8 -17  65 CALM      30.37R
ROSEAU         CLEAR     -6 -20  49 CALM      30.33R
WARROAD        CLEAR    -11 -18  70 NW7       30.31R WCI -26
THIEF RVR FALL CLEAR     -6 -14  68 N9        30.34R WCI -23
CROOKSTON      CLEAR     -2  -9  71 N8        30.35R WCI -17
FOSSTON        CLEAR     -8 -13  77 N5        30.29R WCI -19
DETROIT LAKES  PTCLDY     1  -4  78 N7        30.26R WCI -11
MOORHEAD       CLEAR      1  -8  66 N10       30.33R WCI -14
PARK RAPIDS    CLEAR      0  -4  83 NW5       30.22R WCI -10
MAHNOMEN       FAIR      -1  -7  76 N8        30.29R WCI -15
$$
MNZ006-009>011-018-025>026-011200-
   North Central Minnesota

CITY           SKY/WX    TMP DP  RH WIND       PRES   REMARKS
BAUDETTE       CLEAR     -9 -17  68 NW7       30.28R WCI -24
FLAG ISLAND    CLEAR    -11 -20  64 NW8       30.30R WCI -28
INTL FALLS     CLEAR     -8 -17  64 NW9       30.24R WCI -25
WASKISH        CLEAR     -9 -18  64 NW3       30.28R
BIG FORK       CLEAR     -4 -17  54 CALM      30.27R
LONGVILLE      CLEAR      1  -4  78 NW3       30.22R
GRAND RAPIDS   CLEAR      0 -11  59 N13       30.22R WCI -18
CRANE LAKE       N/A     -6 -15  65 N3        30.25R
ORR            CLEAR     -6 -17  59 NW5       30.18R WCI -17
COOK           CLEAR     -4 -15  59 NW3       30.20R
WALKER         SUNNY      0  -4  82 N5        30.24R WCI -10
$$
MNZ012-019>021-037-011200-
   Northeast Minnesota

CITY           SKY/WX    TMP DP  RH WIND       PRES   REMARKS
DULUTH         CLEAR      4  -7  60 NW14      30.14R WCI -14
ELY            CLEAR     -4 -15  59 NW7       30.16R WCI -18
HIBBING        CLEAR     -1 -10  65 NW12      30.19R WCI -18
EVELETH        CLEAR      0 -10  61 N5        30.19R WCI -10
DULUTH HARBOR  CLEAR      9  -2  61 NW12      30.24R WCI  -6
TWO HARBORS    CLEAR      3 -11  51 NW5       30.16R WCI  -6
SILVER BAY     CLEAR      0 -11  60 CALM      30.16R
GRAND MARAIS     N/A      3 -12  49 VRB5      30.17R WCI  -6
G MARAIS ARPRT CLEAR     -6 -17  59 NW7       30.01R WCI -20
$$
MNZ029>031-032-039>041-046>048-054>057-064-011200-
   West Central Minnesota

CITY           SKY/WX    TMP DP  RH WIND       PRES   REMARKS
FERGUS FALLS   CLEAR      0  -4  85 CALM      30.24R
WHEATON        CLEAR      7   1  78 NW7       30.31R WCI  -5
MORRIS         PTCLDY    10   3  72 N9        30.26R WCI  -2
ALEXANDRIA     CLEAR      8   4  83 N9        30.22R WCI  -5
ELBOW LAKE     FAIR       4  -1  79 N3        30.26R
WADENA         CLEAR      3   0  85 N5        30.24R WCI  -6
GLENWOOD       PTCLDY     9   7  92 N8        30.22R WCI  -4
APPLETON       CLEAR     14   9  79 N10       30.25R WCI   1
BENSON         MOCLDY    10   9  92 N7        30.25R WCI   0
ORTONVILLE     PTCLDY    10   7  85 N14       30.26R WCI  -5
MADISON        PTCLDY    18  10  73 N12       30.27R WCI   5
WILLMAR        FAIR      12   9  85 N9        30.25R WCI   0
$$
MNZ033>034-036-042>043-049>051-058-059-011200-
   Central Minnesota

CITY           SKY/WX    TMP DP  RH WIND       PRES   REMARKS
ST CLOUD       PTCLDY    10   6  84 N6        30.21R WCI   0
SAUK CENTRE      N/A     10   6  85 N8        30.22R WCI  -2
PAYNESVILLE    PTCLDY    10   9  92 N5        30.22R WCI   2
AITKIN         CLEAR      5   0  78 NW7       30.22R WCI  -7
PINE RIVER     CLEAR      7   0  72 N5        30.25R WCI  -2
BRAINERD       CLEAR      6  -2  69 N10       30.22R WCI  -9
STAPLES        CLEAR      5   0  78 N7        30.23R WCI  -7
LONG PRAIRIE   FAIR       9   5  85 N9        30.22R WCI  -5
LITTLE FALLS   MOCLDY    12   1  62 N5        30.23R WCI   4
CAMP RIPLEY    FAIR       8   1  73 N8        30.24R WCI  -4
LITCHFIELD     PTCLDY     9   7  92 N6        30.22R WCI  -1
BUFFALO        MOCLDY    13  10  86 MISG      30.22R
HUTCHINSON     FLURRIES  16  12  85 N7G13     30.21R WCI   6
$$
MNZ037-044-045-052-053-011200-
   East Central Minnesota

CITY           SKY/WX    TMP DP  RH WIND       PRES   REMARKS
PRINCETON      PTCLDY    12   9  85 NW3       30.21R
MORA           CLEAR     10   5  79 NW8       30.22R WCI  -1
CAMBRIDGE      PTCLDY    12   3  67 NW6       30.21R WCI   3
RUSH CITY      PTCLDY    11   6  82 NW3       30.21R
MOOSE LAKE     MOCLDY     7  -2  66 N3        30.19R
HINCKLEY       SUNNY     12   1  62 CALM      30.21R
CLOQUET        CLEAR      3  -6  66 NW9       30.16R WCI -11
MCGREGOR       CLEAR      9   0  66 NW7       30.21R WCI  -3
$$
MNZ071>073-080-081-089-090-097-098-011200-
   Southwest Minnesota

CITY           SKY/WX    TMP DP  RH WIND       PRES   REMARKS
MONTEVIDEO     PTCLDY    14   9  79 NE8       30.24R WCI   3
GRANITE FALLS  CLOUDY    18  14  84 N10       30.24R WCI   7
CANBY          CLOUDY    17  13  86 N13       30.25R WCI   3
MARSHALL       FLURRIES  18  15  88 N12       30.22R WCI   5
REDWOOD FALLS  CLOUDY    19  14  81 N9G21     30.21R WCI   8
OLIVIA         PTCLDY    16  14  93 N12       30.21R WCI   3
PIPESTONE        N/A     18  14  86 NE13G18   30.14R WCI   4
WINDOM         PTCLDY    19  18  93 N13       30.15R WCI   7
WORTHINGTON    CLOUDY    21  18  88 N18       30.15R WCI   6
JACKSON        PTCLDY    23  19  86 N5        30.14R WCI  17
TRACY          CLOUDY    20  14  78 N12       30.20R WCI   8
SLAYTON        CLOUDY    18  14  86 N17G25    30.16R WCI   2
$$
MNZ065>067-074>077-082>085-091>093-011200-
   South Central Minnesota

CITY           SKY/WX    TMP DP  RH WIND       PRES   REMARKS
MANKATO        LGT SNOW  20  18  92 N9        30.19R FOG     WCI   9
NEW ULM        FLURRIES  19  16  86 NE8       30.19R WCI   9
ST JAMES       CLOUDY    21  19  93 N14       30.17R WCI   8
FAIRMONT       PTCLDY    22  20  92 NW9       30.16R WCI  12
GLENCOE        CLOUDY    17  13  84 N9G16     30.20R WCI   6
FARIBAULT      LGT SNOW  19  18  93 N3        30.17R
OWATONNA       MIX PCPN  19  18  93 N8        30.15R WCI   9
WASECA         LGT SNOW  21  18  86 N15       30.17R WCI   8
ALBERT LEA     LGT SNOW  19  18  93 CALM      30.15R
$$
MNZ078>079-086>088-094>096-011200-
   Southeast Minnesota

CITY           SKY/WX    TMP DP  RH WIND       PRES   REMARKS
ROCHESTER      LGT SNOW  18  14  84 N10       30.14R FOG     WCI   6
RED WING       LGT SNOW  19  16  86 N9        30.18R WCI   9
STANTON        LGT SNOW  19  17  88 N7        30.17R WCI  10
DODGE CENTER   LGT SNOW  18  16  93 N8        30.14R WCI   7
WINONA         LGT SNOW  21  19  93 NW8       30.18R WCI  12
PRESTON        PTCLDY    19  15  85 NW7       30.14R WCI  10
$$
ABBREVIATIONS USED IN REMARKS
   TC - TEMPERATURES IN CELSIUS
  WCI - WIND CHILL INDEX
   HX - HEAT INDEX
  VSB - VISIBILITY
$$



USA.gov is the U.S. government's official web portal to all federal, state and local government web resources and services.